Location: Waco, TX
(31.5480°N, 97.1670°W)
Time: 11:53:33
(UTC-05:00)

ISS - All Passes

Search period start: 26 March 2017 00:00
Search period end: 05 April 2017 00:00
Orbit: 399 x 409 km, 51.6° (Epoch: 27 March)

Date Brightness Start Highest point End Pass type
(mag) Time Alt. Az. Time Alt. Az. Time Alt. Az.
26 Mar - 05:12:09 10° NW 05:15:27 79° NE 05:18:44 10° SE visible
26 Mar - 20:12:23 10° S 20:15:09 26° SE 20:17:55 10° ENE visible
26 Mar - 21:49:01 10° W 21:51:34 21° NW 21:54:08 10° NNE visible
27 Mar - 04:20:00 10° NNW 04:23:03 34° NE 04:26:06 10° ESE night (unlit)
27 Mar - 05:57:21 10° W 05:59:16 15° SW 06:01:11 10° SSW visible
27 Mar - 19:21:40 10° SSE 19:22:57 12° SE 19:24:14 10° ESE daylight
27 Mar - 20:56:00 10° WSW 20:59:06 40° NW 21:02:12 10° NNE visible
28 Mar - 03:28:08 10° N 03:30:33 18° NE 03:32:57 10° E night (unlit)
28 Mar - 05:04:04 10° WNW 05:07:03 32° SW 05:10:01 10° SSE night (unlit)
28 Mar - 20:03:27 10° SW 20:06:41 85° SE 20:09:57 10° NE visible
28 Mar - 21:43:20 10° NW 21:43:33 10° NNW 21:43:46 10° NNW visible
29 Mar - 02:37:00 10° NNE 02:37:55 11° NNE 02:38:49 10° NE night (unlit)
29 Mar - 04:11:27 10° NW 04:14:44 77° SW 04:18:01 10° SE night (unlit)
29 Mar - 19:11:25 10° SSW 19:14:22 34° SE 19:17:21 10° ENE daylight
29 Mar - 20:48:40 10° W 20:50:54 17° NW 20:53:09 10° N visible
30 Mar - 03:19:09 10° NNW 03:22:19 44° NE 03:25:30 10° ESE night (unlit)
30 Mar - 04:57:24 10° WSW 04:58:27 11° SW 04:59:30 10° SW night (unlit)
30 Mar - 18:20:06 10° SSE 18:22:07 15° SE 18:24:08 10° E daylight
30 Mar - 19:55:24 10° WSW 19:58:21 31° NW 20:01:19 10° NNE daylight
31 Mar - 02:27:08 10° NNW 02:29:49 22° NE 02:32:28 10° E night (unlit)
31 Mar - 04:03:29 10° WNW 04:06:13 24° SW 04:08:56 10° S night (unlit)
31 Mar - 19:02:40 10° SW 19:05:53 72° NW 19:09:07 10° NE daylight
01 Apr - 01:35:34 10° N 01:37:11 13° NNE 01:38:47 10° ENE night (unlit)
01 Apr - 03:10:39 10° NW 03:13:53 57° SW 03:17:07 10° SSE night (unlit)
01 Apr - 18:10:23 10° SSW 18:13:29 46° SE 18:16:37 10° ENE daylight
01 Apr - 19:48:17 10° WNW 19:50:08 14° NNW 19:51:59 10° N daylight
02 Apr - 02:18:13 10° NW 02:21:28 59° NE 02:24:43 10° SE night (unlit)
02 Apr - 17:18:44 10° S 17:21:11 20° SE 17:23:38 10° ENE daylight
02 Apr - 18:54:44 10° W 18:57:30 25° NW 19:00:16 10° NNE daylight
03 Apr - 01:26:04 10° NNW 01:28:57 27° NE 01:31:50 10° E night (unlit)
03 Apr - 03:02:51 10° W 03:05:15 19° SW 03:07:39 10° S night (unlit)
03 Apr - 18:01:48 10° WSW 18:04:58 53° NW 18:08:09 10° NE daylight
04 Apr - 00:34:16 10° N 00:36:19 15° NE 00:38:22 10° ENE night (unlit)
04 Apr - 02:09:48 10° WNW 02:12:56 42° SW 02:16:03 10° SSE night (unlit)
04 Apr - 17:09:19 10° SW 17:12:30 62° SE 17:15:43 10° NE daylight
04 Apr - 18:47:55 10° WNW 18:49:15 12° NNW 18:50:34 10° N daylight
